sat.trackr.live / text

‹ back to catalog

STARLINK-33949

NORAD 64105 · 2025-110K

PAYLOAD ACTIVE UNKNOWN

§ Identity

Operator
Country
US
Launch date
2025-05-23
Launch site
AFWTR
Launch vehicle
Mass (kg)
RCS (m²)

Purposes: comms

External: N2YO · Heavens-Above · Gunter

§ Orbital elements

Epoch: 2026-09-20T11:20:49.201152Z

Period
94.01 min
Inclination
53.1558°
Eccentricity
0.0002055
Mean motion
15.31721338 rev/d
Perigee alt
469.3 km
Apogee alt
472.1 km
Semi-major
6,848.8 km
B*
3.8311e-4
RAAN
200.6712°
Arg perigee
82.6166°
Mean anomaly
277.5069°
Rev number
7,572

§ Raw data

STARLINK-339491 64105U 25110K   26263.47279168  .00011550  00000+0  38311-3 0  99982 64105  53.1558 200.6712 0002055  82.6166 277.5069 15.31721338 75725

JSON: /api/v1/satellites/64105 · /tle

For live sub-satellite position, see the globe view (requires WebGL).

§ Visibility from observer

Set your observer location to see the next 7 days of passes ≥ 10°. The values pass through the URL so the page stays shareable.

No JS? Fill the form by hand. The geolocation button needs JavaScript.